EW3086 Weather Reports


time (UTC)temp
C
wind
direction
speed
KPH
gust
KPH
rain 1hr
cm
rain 24hr
cm
rain mn
cm
humidity
%
barometer
mb
20260505185004 12 0 0.0 0.0 0.00 0.00 0.00 72 1012.8
20260505184525 12 0 0.0 0.0 0.00 0.00 0.00 72 1012.9
20260505184004 12 0 0.0 0.0 0.00 0.00 0.00 72 1012.8
20260505183504 12 0 0.0 0.0 0.00 0.00 0.00 73 1012.8
20260505183004 13 0 0.0 0.0 0.00 0.00 0.00 75 1012.8
20260505182504 13 0 0.0 0.0 0.00 0.00 0.00 75 1012.7
20260505182025 13 0 0.0 0.0 0.00 0.00 0.00 75 1012.7
20260505181525 13 0 0.0 0.0 0.00 0.00 0.00 75 1012.7
20260505181004 13 0 0.0 0.0 0.00 0.00 0.00 74 1012.7
20260505180504 13 0 0.0 0.0 0.00 0.00 0.00 74 1012.7
20260505180025 13 300 0.0 4.8 0.00 0.00 0.00 74 1012.7
20260505175504 13 306 0.0 4.8 0.00 0.00 0.00 73 1012.6
20260505175025 13 315 0.0 4.8 0.00 0.00 0.00 72 1012.6
20260505174504 13 317 1.6 6.4 0.00 0.00 0.00 70 1012.6
20260505174004 14 317 1.6 6.4 0.00 0.00 0.00 69 1012.6
20260505173504 14 317 1.6 6.4 0.00 0.00 0.00 68 1012.6
20260505173004 14 326 1.6 8.0 0.00 0.00 0.00 67 1012.6
20260505172503 14 336 1.6 8.0 0.00 0.00 0.00 67 1012.6
20260505172004 14 342 1.6 6.4 0.00 0.00 0.00 67 1012.6
20260505171503 14 342 1.6 6.4 0.00 0.00 0.00 69 1012.6
20260505171003 14 342 1.6 6.4 0.00 0.00 0.00 69 1012.7
20260505170504 14 345 1.6 6.4 0.00 0.00 0.00 68 1012.7
20260505170004 14 340 1.6 8.0 0.00 0.00 0.00 67 1012.7
20260505165504 14 345 3.2 9.7 0.00 0.00 0.00 66 1012.6
20260505165004 15 345 3.2 12.9 0.00 0.00 0.00 66 1012.7
20260505164525 15 340 3.2 12.9 0.00 0.00 0.00 63 1012.6
20260505164024 15 342 3.2 9.7 0.00 0.00 0.00 63 1012.6
20260505163504 15 326 1.6 9.7 0.00 0.00 0.00 61 1012.6
20260505163003 15 311 1.6 4.8 0.00 0.00 0.00 60 1012.6
20260505162503 15 319 1.6 8.0 0.00 0.00 0.00 60 1012.6
20260505162004 15 312 1.6 8.0 0.00 0.00 0.00 59 1012.6
20260505161503 15 318 3.2 9.7 0.00 0.00 0.00 58 1012.7
20260505161003 15 320 3.2 11.3 0.00 0.00 0.00 58 1012.7
20260505160503 15 305 3.2 11.3 0.00 0.00 0.00 58 1012.7
20260505153004 15 311 3.2 14.5 0.00 0.00 0.00 55 1013.0
20260505152504 15 327 3.2 14.5 0.00 0.00 0.00 55 1013.0
20260505152004 15 330 3.2 12.9 0.00 0.00 0.00 54 1013.1
20260505151524 15 339 1.6 9.7 0.00 0.00 0.00 55 1013.1
20260505151024 15 343 4.8 12.9 0.00 0.00 0.00 56 1013.1
20260505150524 15 339 4.8 14.5 0.00 0.00 0.00 55 1013.1
20260505140506 15 305 3.2 11.3 0.00 0.00 0.00 54 1013.5
20260505125006 14 328 4.8 12.9 0.00 0.00 0.00 63 1013.6
20260505124506 14 328 4.8 12.9 0.00 0.00 0.00 62 1013.6
20260505124006 14 332 4.8 14.5 0.00 0.00 0.00 64 1013.6
20260505123506 14 328 3.2 14.5 0.00 0.00 0.00 64 1013.6
20260505123008 14 320 3.2 11.3 0.00 0.00 0.00 67 1013.6
20260505122507 14 327 4.8 12.9 0.00 0.00 0.00 67 1013.7
20260505122006 14 329 4.8 12.9 0.00 0.00 0.00 68 1013.7
20260505121506 13 328 4.8 14.5 0.00 0.00 0.00 68 1013.7
20260505121007 13 321 4.8 14.5 0.00 0.00 0.00 68 1013.6
20260505120506 13 327 4.8 12.9 0.00 0.00 0.00 68 1013.7
20260505120027 13 325 4.8 16.1 0.00 0.00 0.00 68 1013.6
20260505115506 13 326 6.4 16.1 0.00 0.00 0.00 67 1013.6
20260505115028 13 322 4.8 14.5 0.00 0.00 0.00 67 1013.6
20260505114506 13 309 3.2 14.5 0.00 0.00 0.00 66 1013.7
20260505114006 14 319 3.2 11.3 0.00 0.00 0.00 66 1013.7
20260505113506 14 342 3.2 9.7 0.00 0.00 0.00 66 1013.8
20260505113006 14 345 3.2 9.7 0.00 0.00 0.00 66 1013.9
20260505112506 14 339 1.6 8.0 0.00 0.00 0.00 66 1014.0
20260505112006 14 347 1.6 8.0 0.00 0.00 0.00 66 1014.0
20260505111506 13 343 1.6 8.0 0.00 0.00 0.00 66 1014.0
20260505111007 14 323 1.6 8.0 0.00 0.00 0.00 65 1014.1
20260505110507 13 324 3.2 8.0 0.00 0.00 0.00 64 1014.1
20260505102007 13 322 3.2 8.0 0.00 0.00 0.00 64 1014.2
20260505101506 14 308 1.6 8.0 0.00 0.00 0.00 65 1014.2
20260505101006 14 357 1.6 6.4 0.00 0.00 0.00 65 1014.1
20260505100506 14 11 1.6 4.8 0.00 0.00 0.00 67 1014.1
20260505100006 14 349 0.0 6.4 0.00 0.00 0.00 68 1014.1
20260505095527 13 72 0.0 6.4 0.00 0.00 0.00 68 1014.1
20260505095006 13 144 1.6 8.0 0.00 0.00 0.00 68 1014.2
20260505094506 13 168 0.0 8.0 0.00 0.00 0.00 69 1014.2
20260505094006 13 23 0.0 6.4 0.00 0.00 0.00 69 1014.2
20260505093506 13 22 1.6 6.4 0.00 0.00 0.00 70 1014.2
20260505093006 12 36 0.0 6.4 0.00 0.00 0.00 71 1014.2
20260505092506 12 147 1.6 6.4 0.00 0.00 0.00 72 1014.3
20260505092006 12 161 1.6 6.4 0.00 0.00 0.00 70 1014.3
20260505091506 12 98 0.0 3.2 0.00 0.00 0.00 72 1014.3
20260505091006 12 89 0.0 3.2 0.00 0.00 0.00 72 1014.3
20260505090506 12 16 0.0 3.2 0.00 0.00 0.00 73 1014.4
20260505090006 12 356 0.0 3.2 0.00 0.00 0.00 73 1014.4
20260505085506 12 161 0.0 6.4 0.00 0.00 0.00 73 1014.5
20260505085006 11 161 0.0 9.7 0.00 0.00 0.00 74 1014.5
20260505084506 11 134 1.6 9.7 0.00 0.00 0.00 75 1014.5
20260505084006 11 84 0.0 4.8 0.00 0.03 0.00 76 1014.5
20260505083507 11 142 1.6 14.5 0.00 0.03 0.00 76 1014.5
20260505083006 11 153 1.6 14.5 0.00 0.03 0.00 77 1014.5
20260505082506 11 146 0.0 12.9 0.00 0.03 0.00 78 1014.6
20260505082006 11 138 0.0 3.2 0.00 0.03 0.00 79 1014.6
20260505081506 11 156 0.0 3.2 0.00 0.03 0.00 80 1014.6
20260505081006 11 0 0.0 0.0 0.00 0.03 0.00 81 1014.6
20260505080527 11 0 0.0 0.0 0.00 0.03 0.00 82 1014.5
20260505080027 10 0 0.0 0.0 0.00 0.03 0.00 82 1014.6
20260505075506 10 0 0.0 0.0 0.00 0.03 0.00 82 1014.5
20260505075006 10 0 0.0 0.0 0.00 0.03 0.00 83 1014.5
20260505074527 10 0 0.0 0.0 0.00 0.03 0.00 83 1014.5
20260505074006 10 156 0.0 4.8 0.00 0.03 0.00 83 1014.5
20260505073506 10 156 0.0 4.8 0.00 0.03 0.00 83 1014.5
20260505073006 10 156 0.0 3.2 0.00 0.03 0.00 84 1014.4
20260505072506 10 156 0.0 4.8 0.00 0.03 0.00 84 1014.4
20260505072005 10 156 0.0 4.8 0.00 0.03 0.00 85 1014.4
20260505071505 10 156 0.0 3.2 0.00 0.03 0.00 85 1014.5
20260505071006 10 156 0.0 3.2 0.00 0.03 0.00 86 1014.5
20260505070505 10 156 0.0 3.2 0.00 0.03 0.00 87 1014.5
20260505070006 10 155 0.0 8.0 0.00 0.03 0.00 87 1014.5
20260505065506 10 155 0.0 8.0 0.00 0.03 0.00 87 1014.5
20260505065006 10 0 0.0 0.0 0.00 0.03 0.00 88 1014.5
20260505064527 10 0 0.0 0.0 0.00 0.03 0.00 88 1014.5
20260505064006 10 0 0.0 0.0 0.00 0.03 0.00 89 1014.5
20260505063505 10 0 0.0 0.0 0.00 0.03 0.00 89 1014.4
20260505063006 10 0 0.0 0.0 0.00 0.03 0.00 89 1014.4
20260505062505 10 0 0.0 0.0 0.00 0.03 0.00 90 1014.3
20260505062027 10 0 0.0 0.0 0.00 0.03 0.00 90 1014.2
20260505061526 10 189 0.0 4.8 0.00 0.03 0.00 90 1014.1
20260505061005 10 189 0.0 4.8 0.00 0.03 0.00 90 1014.1
20260505060506 10 0 0.0 0.0 0.00 0.03 0.00 90 1014.2
20260505060006 10 0 0.0 0.0 0.00 0.03 0.00 90 1014.2
20260505055505 10 0 0.0 0.0 0.00 0.03 0.00 90 1014.2
20260505055006 10 0 0.0 0.0 0.00 0.03 0.00 90 1014.2
20260505054506 10 0 0.0 0.0 0.00 0.03 0.00 90 1014.2
20260505054005 10 0 0.0 0.0 0.00 0.03 0.00 90 1014.3
20260505053505 10 0 0.0 0.0 0.00 0.03 0.00 90 1014.2
20260505053005 10 0 0.0 0.0 0.00 0.03 0.00 90 1014.2
20260505052505 10 0 0.0 0.0 0.00 0.03 0.00 90 1014.2
20260505052005 10 0 0.0 0.0 0.00 0.03 0.00 90 1014.2
20260505051526 10 345 0.0 1.6 0.00 0.03 0.00 90 1014.1
20260505051006 10 345 0.0 1.6 0.00 0.03 0.00 91 1014.1
20260505050505 10 0 0.0 0.0 0.00 0.03 0.00 91 1014.0
20260505041505 10 0 0.0 0.0 0.00 0.03 0.00 91 1014.2
20260505041005 10 0 0.0 0.0 0.00 0.03 0.00 90 1014.1
20260505040505 10 0 0.0 0.0 0.00 0.03 0.00 90 1014.1
20260505040005 10 0 0.0 0.0 0.00 0.03 0.00 90 1014.1
20260505035526 10 0 0.0 0.0 0.00 0.03 0.00 90 1014.0
20260505035005 10 0 0.0 0.0 0.00 0.03 0.00 90 1014.0
20260505034505 10 0 0.0 0.0 0.00 0.03 0.00 90 1014.0
20260505034005 10 0 0.0 0.0 0.00 0.03 0.00 90 1013.9
20260505033505 10 0 0.0 0.0 0.00 0.03 0.00 90 1013.9
20260505033005 10 0 0.0 0.0 0.00 0.03 0.00 90 1013.9
20260505032505 10 0 0.0 0.0 0.00 0.03 0.00 90 1013.9
20260505032005 10 0 0.0 0.0 0.00 0.03 0.00 90 1014.0
20260505031505 10 0 0.0 0.0 0.00 0.03 0.00 90 1014.0
20260505031005 10 0 0.0 0.0 0.00 0.03 0.00 90 1014.0
20260505030526 10 0 0.0 0.0 0.00 0.03 0.00 90 1013.9
20260505030005 10 0 0.0 0.0 0.00 0.03 0.00 90 1014.0
20260505025505 10 0 0.0 0.0 0.00 0.03 0.00 90 1014.1
20260505025026 10 0 0.0 0.0 0.00 0.03 0.00 90 1014.1
20260505024505 10 0 0.0 0.0 0.00 0.03 0.00 90 1014.2
20260505024005 10 0 0.0 0.0 0.00 0.03 0.00 90 1014.1
20260505023505 10 0 0.0 0.0 0.00 0.03 0.00 90 1014.1
20260505023005 10 0 0.0 0.0 0.00 0.03 0.00 90 1014.1
20260505022505 10 0 0.0 0.0 0.00 0.03 0.00 90 1014.1
20260505022005 10 0 0.0 0.0 0.00 0.03 0.00 90 1014.1
20260505021526 10 0 0.0 0.0 0.00 0.03 0.00 90 1014.1
20260505021005 10 0 0.0 0.0 0.00 0.03 0.00 90 1014.2
20260505020505 10 0 0.0 0.0 0.00 0.03 0.00 90 1014.2
20260505020005 10 0 0.0 0.0 0.00 0.03 0.00 90 1014.2
20260505015526 10 0 0.0 0.0 0.00 0.03 0.00 90 1014.1
20260505015005 10 0 0.0 0.0 0.00 0.03 0.00 90 1014.2
20260505014505 10 0 0.0 0.0 0.00 0.03 0.00 89 1014.2
20260505014005 10 0 0.0 0.0 0.00 0.03 0.00 89 1014.2
20260505013505 10 0 0.0 0.0 0.00 0.03 0.00 89 1014.2
20260505013026 10 0 0.0 0.0 0.00 0.03 0.00 89 1014.2
20260505012505 10 0 0.0 0.0 0.00 0.03 0.00 89 1014.2
20260505012005 10 0 0.0 0.0 0.00 0.03 0.00 89 1014.2
20260505011504 10 0 0.0 0.0 0.00 0.03 0.00 89 1014.3
20260505011026 10 0 0.0 0.0 0.00 0.03 0.00 89 1014.2
20260505010505 10 0 0.0 0.0 0.00 0.03 0.00 89 1014.3
20260505010026 10 0 0.0 0.0 0.00 0.03 0.00 89 1014.3
20260505005505 10 0 0.0 0.0 0.00 0.03 0.00 89 1014.4
20260505005025 10 0 0.0 0.0 0.00 0.03 0.00 89 1014.4
20260505004505 10 0 0.0 0.0 0.00 0.03 0.00 89 1014.4
20260505004004 10 0 0.0 0.0 0.00 0.03 0.00 89 1014.4
20260505003505 10 0 0.0 0.0 0.00 0.03 0.00 88 1014.4
20260505003005 10 0 0.0 0.0 0.00 0.03 0.00 88 1014.4
20260505002505 11 0 0.0 0.0 0.00 0.03 0.00 88 1014.5
20260505002005 11 0 0.0 0.0 0.00 0.03 0.00 88 1014.5
20260505001504 11 0 0.0 0.0 0.00 0.03 0.00 88 1014.5
20260505001005 11 0 0.0 0.0 0.00 0.03 0.00 88 1014.6
20260505000505 11 185 0.0 1.6 0.00 0.03 0.00 89 1014.6
20260505000004 11 185 0.0 1.6 0.00 0.03 0.00 88 1014.6
20260504235505 11 0 0.0 0.0 0.00 0.03 0.00 89 1014.7
20260504235025 11 0 0.0 0.0 0.00 0.03 0.00 88 1014.7
20260504234505 11 0 0.0 0.0 0.00 0.03 0.00 88 1014.7
20260504234005 11 0 0.0 0.0 0.00 0.03 0.00 88 1014.7
20260504233504 11 184 0.0 1.6 0.00 0.03 0.00 88 1014.7
20260504233004 11 184 0.0 1.6 0.00 0.03 0.00 88 1014.6
20260504232505 11 0 0.0 0.0 0.00 0.03 0.00 88 1014.6
20260504232004 11 186 0.0 1.6 0.00 0.03 0.00 88 1014.6
20260504231504 11 186 0.0 1.6 0.00 0.03 0.00 87 1014.5
20260504231004 11 0 0.0 0.0 0.00 0.03 0.00 88 1014.5
20260504230505 11 0 0.0 0.0 0.00 0.03 0.00 87 1014.5
20260504230007 11 0 0.0 0.0 0.00 0.03 0.00 87 1014.5
20260504225505 11 0 0.0 0.0 0.00 0.03 0.03 87 1014.5
20260504225004 11 0 0.0 0.0 0.00 0.03 0.03 87 1014.6
20260504224505 11 0 0.0 0.0 0.00 0.03 0.03 88 1014.5
20260504224005 11 0 0.0 0.0 0.00 0.03 0.03 87 1014.6
20260504223525 11 0 0.0 0.0 0.00 0.03 0.03 87 1014.7
20260504223005 11 0 0.0 0.0 0.00 0.03 0.03 87 1014.7
20260504222504 11 0 0.0 0.0 0.00 0.03 0.03 87 1014.7
20260504222004 11 0 0.0 0.0 0.00 0.03 0.03 87 1014.7
20260504221526 11 0 0.0 0.0 0.00 0.03 0.03 87 1014.7
20260504221026 11 0 0.0 0.0 0.00 0.03 0.03 87 1014.7
20260504220504 11 0 0.0 0.0 0.00 0.03 0.03 87 1014.7
20260504220005 11 0 0.0 0.0 0.00 0.03 0.03 87 1014.7
20260504215504 11 0 0.0 0.0 0.00 0.03 0.03 86 1014.7
20260504215025 11 0 0.0 0.0 0.00 0.03 0.03 86 1014.6
20260504214504 11 0 0.0 0.0 0.00 0.03 0.03 86 1014.7
20260504214004 11 0 0.0 0.0 0.00 0.03 0.03 86 1014.7
20260504213504 11 0 0.0 0.0 0.00 0.03 0.03 86 1014.6
20260504213004 11 0 0.0 0.0 0.00 0.03 0.03 86 1014.6
20260504212504 11 281 0.0 3.2 0.00 0.03 0.03 85 1014.6
20260504212025 11 281 0.0 3.2 0.00 0.03 0.03 85 1014.6
20260504211504 11 0 0.0 0.0 0.00 0.03 0.03 85 1014.7
20260504211004 12 0 0.0 0.0 0.00 0.03 0.03 85 1014.7
20260504210504 12 0 0.0 0.0 0.00 0.03 0.03 85 1014.7
20260504210025 12 0 0.0 0.0 0.00 0.03 0.03 84 1014.8
20260504205504 12 0 0.0 0.0 0.00 0.03 0.03 84 1014.9
20260504205004 12 0 0.0 0.0 0.00 0.03 0.03 84 1014.8
20260504204504 12 0 0.0 0.0 0.00 0.03 0.03 84 1014.7
20260504204004 12 0 0.0 0.0 0.00 0.03 0.03 84 1014.8
20260504203504 12 0 0.0 0.0 0.00 0.03 0.03 83 1014.7
20260504203025 12 0 0.0 0.0 0.00 0.03 0.03 83 1014.6
20260504202504 13 0 0.0 0.0 0.00 0.03 0.03 83 1014.6
20260504202004 13 0 0.0 0.0 0.00 0.03 0.03 83 1014.6
20260504201525 13 0 0.0 0.0 0.00 0.03 0.03 82 1014.6
20260504201025 13 0 0.0 0.0 0.00 0.03 0.03 82 1014.6
20260504200504 13 0 0.0 0.0 0.00 0.03 0.03 82 1014.5
20260504200004 13 0 0.0 0.0 0.00 0.03 0.03 81 1014.5
20260504195504 13 0 0.0 0.0 0.00 0.03 0.03 81 1014.4
20260504195004 13 0 0.0 0.0 0.00 0.03 0.03 80 1014.4
20260504194504 13 323 0.0 3.2 0.00 0.03 0.03 80 1014.3
20260504194025 13 323 0.0 3.2 0.00 0.03 0.03 79 1014.4
20260504193504 13 0 0.0 0.0 0.00 0.03 0.03 78 1014.4
20260504193004 14 323 0.0 3.2 0.00 0.03 0.03 77 1014.3
20260504192504 14 311 0.0 3.2 0.00 0.03 0.03 77 1014.2
20260504192004 15 274 1.6 3.2 0.00 0.03 0.03 75 1014.2
20260504191504 15 247 0.0 6.4 0.00 0.03 0.03 74 1014.1
20260504191004 16 228 0.0 6.4 0.00 0.03 0.03 73 1014.1
20260504190504 16 109 0.0 1.6 0.00 0.03 0.03 72 1014.0
20260504190004 16 0 0.0 0.0 0.00 0.03 0.03 72 1013.9
20260504185504 16 0 0.0 0.0 0.00 0.03 0.03 71 1013.8